    Observer details:
    160 Castelmartini.  Observers M. Jaeger, E. Prosperi, S. Prosperi,
        W. Vollmann.  Measurer E. Prosperi.  0.35-m f/10 Schmidt-Cassegrain + CCD.
    703 Catalina Sky Survey.  Observer G. J. Leonard.  Measurers B. M. Africano,
        E. J. Christensen, G. A. Farneth, D. C. Fuls, A. R. Gibbs, A. D. Grauer,
        H. Groeller, R. A. Kowalski, S. M. Larson, G. J. Leonard, T. A. Pruyne,
        R. L. Seaman, F. C. Shelly.  0.68-m Schmidt + 10K CCD.
    734 Farpoint Observatory, Eskridge.  Observer G. Hug.  0.7-m reflector + CCD.
    958 Observatoire de Dax.  Observers P. Dupouy, J. B. de Vanssay.  Measurer
        P. Dupouy.  0.43-m f/2.7 reflector + CCD.
    C77 Bernezzo Observatory.  Observer A. Mantero.  0.25-m f/4.0 reflector + CCD.
    C95 SATINO Remote Observatory, Haute Provence.  Observer J. Jahn.  0.60-m
        f/3.2 Newtonian reflector + CCD.
    H01 Magdalena Ridge Observatory, Socorro.  Observers W. H. Ryan, E. V. Ryan.
        Measurer W. H. Ryan.  2.4-m f/8.9 Ritchey-Chretien + CCD.
    H21 Astronomical Research Observatory, Westfield.  Observer R. Holmes.
        Measurers S. Foglia, L. Buzzi, T. Linder, R. Holmes.  0.76-m f/3.0
        astrograph + CCD.
    I52 Steward Observatory, Mt. Lemmon Station.  Observer G. J. Leonard.
        Measurers B. M. Africano, E. J. Christensen, G. A. Farneth, D. C. Fuls,
        A. R. Gibbs, A. D. Grauer, H. Groeller, R. A. Kowalski, S. M. Larson,
        G. J. Leonard, T. A. Pruyne, R. L. Seaman, F. C. Shelly.  1.0-m reflector
        + CCD.
    I93 St Pardon de Conques.  Observer F. Losse.  0.40-m f/3.7 reflector + CCD.
    J69 North Observatory, Clanfield.  Observer D. Briggs.  0.41-m f/4.5
        Newtonian reflector + CCD.
    J95 Great Shefford.  Observer P. Birtwhistle.  0.41-m f/6.3
        Schmidt-Cassegrain + CCD.
    K51 Osservatorio del Celado, Castello Tesino.  Observers G. Favero,
        R. Furgoni.  Measurer R. Furgoni.  0.80-m f/4 reflector + CCD.
    K63 G. Pascoli Observatory, Castelvecchio Pascoli.  Observer R. Bacci.
        0.41-m f/3.2 Newtonian reflector + CCD.
    L01 Visnjan Observatory, Tican.  Observers K. Korlevic, J. Mates,
        F. Valentine.  Measurer K. Korlevic.  1.0-m f/2.9 reflector + CCD.
    L04 ROASTERR-1 Observatory, Cluj-Napoca.  Observer L. Hudin.  0.3-m f/5
        reflector + CCD.
    P93 Space Tracking and Communications Center, JAXA.  Observers K. Nishiyama,
        S. Okumura.  1.0-m f/3.0 reflector + CCD.
    T08 ATLAS-MLO, Mauna Loa.  Observers L. Denneau, J. Tonry, A. Heinze,
        H. Weiland, H. Flewelling.  Measurers L. Denneau, J. Tonry, A. Heinze,
        H. Weiland, H. Flewelling, B. Stalder, A. Fitzsimmons, D. Young,
        N. Erasmus.  0.5-m reflector + CCD.
    V01 Mountainville Observatory, Alpine.  Observer B. Sheets.  0.35-m
        Schmidt-Cassegrain + CCD.
    Z80 Northolt Branch Observatory.  Observer G. Wells.  Measurers G. Wells,
        D. Bamberger.  0.25-m f/8.0 Ritchey-Chretien + CCD.
    Z99 Clixby Observatory, Cleethorpes.  Observer A. Mickleburgh.  0.36-m f/8
        Schmidt-Cassegrain + CCD.
    
    Orbital elements:
    2019 FO                                                  Earth MOID = 0.0160 AU
    Epoch 2019 Apr. 27.0 TT = JDT 2458600.5                 MPC
    M 202.34059              (2000.0)            P               Q
    n   1.25742927     Peri.  197.28583     +0.95906918     -0.28314555
    a   0.8501202      Node   179.13364     +0.28048130     +0.94799414
    e   0.2042561      Incl.   14.78742     +0.03894276     +0.14538125
    P   0.78           H   24.7           G   0.15           U   7
    Residuals in seconds of arc
    190317 T08 (1.7-  3.8+)   190325 160  0.4+  0.1+    190326 I52  0.2+  0.0
    190317 T08  0.6+  1.1+    190325 160  0.1-  0.1+    190326 H21  0.1+  0.0
    190317 T08  0.5-  1.1-    190325 C95  1.0+  0.5-    190326 H21  0.0   0.0
    190317 T08 (0.6+  2.4-)   190325 C95  0.9+  0.8-    190326 734  0.5-  0.6+
    190317 T08 (0.3-  2.4-)   190325 C95  0.5+  0.1+    190326 734  0.1-  0.4+
    190325 703  0.2-  1.1-    190325 958  0.3+  0.8+    190326 734  0.6+  0.1-
    190325 703  0.2-  0.6-    190325 Z80  0.9-  0.3+    190326 P93  0.4+  0.9+
    190325 703  0.2+  0.1+    190325 Z80  0.2-  0.5-    190326 P93  0.5+  0.4+
    190325 703  0.3+  0.5+    190325 958  0.3-  0.7+    190326 P93  0.3+  0.9+
    190325 H01  0.1-  0.2+    190325 Z80  0.4-  0.4-    190326 K51  0.0   0.2-
    190325 H01  0.0   0.1+    190325 Z99  0.4-  0.1+    190326 K51  0.1-  0.1-
    190325 H01  0.1-  0.1+    190325 958  0.1+  0.7+    190326 K51  0.0   0.1-
    190325 H01  0.1-  0.1+    190325 Z99  0.1+  0.1+    190326 L04  0.1+  0.1-
    190325 I52  0.3-  0.2-    190325 J95  0.1+  0.0     190326 L04  0.0   0.3-
    190325 I52  0.1-  0.1+    190325 J95  0.1+  0.1-    190326 L04  0.1+  0.3+
    190325 I52  0.1-  0.0     190325 Z99  0.1+  0.2-    190326 C77  0.5-  0.1+
    190325 I52  0.3-  0.2-    190325 J95  0.3-  0.2-    190326 C77  0.0   0.7+
    190325 V01  0.4+  0.4+    190325 J95  0.3-  0.2+    190326 C77  0.1-  0.2+
    190325 V01  0.8+  0.6-    190325 J69  0.4+  0.1+    190326 L01  0.0   0.4-
    190325 V01  0.0   0.5+    190325 J69  0.0   0.1-    190326 L01  0.0   0.3-
    190325 V01  0.1-  0.6+    190326 I93  0.5+  0.1-    190326 L01  0.3+  0.5-
    190325 K63  0.7-  0.2-    190326 I93  0.0   0.1-    190326 L01  0.1-  0.4-
    190325 K63  0.5-  0.3-    190326 I93  1.0-  0.2-    190326 L01  0.0   0.3-
    190325 160  0.1-  0.3-    190326 I52  0.1+  0.3-    190327 H21  0.2+  0.1-
    190325 160  0.2+  0.1-    190326 I52  0.2+  0.0     190327 H21  0.1+  0.0
    190325 160  0.0   0.2-    190326 I52  0.2+  0.1-    190327 H21  0.2+  0.0
    
    Ephemeris:
    2019 FO                  a,e,i = 0.85, 0.20, 15                  q = 0.6765
    Date    TT    R. A. (2000) Decl.     Delta      r     Elong.  Phase     V
    2019 02 25    18 08 22.2 -79 31 11   0.1059  0.9704    76.4    97.5    23.3
    ...
    2019 03 12    14 51 12.7 -69 44 08   0.04097 1.0007    99.1    78.6    20.5
    ...
    2019 03 20    12 57 51.2 -06 46 17   0.01707 1.0119   162.9    16.8    16.8
    ...
    2019 03 26    12 01 09.5 +50 10 20   0.03304 1.0179   127.8    50.7    19.2
    2019 03 27    11 53 55.1 +53 40 54   0.03713 1.0187   123.7    54.5    19.6
    2019 03 28    11 47 13.3 +56 26 35   0.04135 1.0194   120.4    57.6    19.9
    ...
    2019 04 03    11 16 40.6 +65 01 58   0.06773 1.0226   108.0    68.4    21.3
    ...
    2019 04 11    10 54 26.5 +68 49 20   0.1032  1.0237    99.3    75.0    22.4
    ...
    2019 04 26    10 40 20.4 +70 49 42   0.1652  1.0157    88.6    82.0    23.7
    
    A. U. Tomatic                (C) Copyright 2019 MPC           M.P.E.C. 2019-F107
    

    Read MPEC 2019-F106 Read MPEC 2019-F108


    MPEC number:

    Enter an MPEC number in one of the following forms:

    • 1997-B01 (the full form)
    • J97B01 (the packed version of the full form)
    • B01 (the abbreviated form)